GW4545 Weather Reports


Display with metric or nautical units.
time (UTC)temp
F
wind
direction
speed
MPH
gust
MPH
rain 1hr
in
rain 24hr
in
rain mn
in
humidity
%
barometer
mb
20260903023102 56 215 1.0 4.0 0.00 0.39 0.39 89 1008.7
20260903021602 58 184 1.0 4.0 0.00 0.39 0.39 85 1008.5
20260903020101 61 173 0.0 2.0 0.00 0.39 0.39 81 1008.5
20260903014605 63 198 1.0 6.0 0.00 0.39 0.39 76 1008.5
20260903013053 64 0 0.0 3.0 0.00 0.39 0.39 73 1008.4
20260903011549 63 254 1.0 5.0 0.00 0.39 0.39 72 1008.2
20260903010055 63 165 1.0 6.0 0.00 0.39 0.39 75 1008.1
20260903004554 64 175 2.0 6.0 0.00 0.39 0.39 74 1008.0
20260903003049 64 163 2.0 8.0 0.00 0.39 0.39 71 1007.9
20260903001554 64 159 2.0 7.0 0.00 0.39 0.39 74 1007.9
20260903000050 63 155 1.0 4.0 0.00 0.39 0.39 81 1007.9
20260902234623 62 0 1.0 4.0 0.01 0.39 0.39 83 1007.8
20260902233056 62 99 1.0 3.0 0.02 0.39 0.39 86 1007.6
20260902231608 60 134 1.0 6.0 0.03 0.39 0.39 89 1007.6
20260902230114 60 0 0.0 4.0 0.05 0.39 0.39 90 1007.5
20260902224556 60 76 0.0 3.0 0.05 0.39 0.38 93 1007.3
20260902223053 60 59 0.0 2.0 0.06 0.38 0.37 96 1007.2
20260902221550 59 0 0.0 4.0 0.07 0.37 0.36 95 1006.9
20260902214550 58 221 2.0 8.0 0.08 0.34 0.33 95 1006.5
20260902213048 58 236 1.0 4.0 0.07 0.32 0.31 96 1006.4
20260902211557 58 0 1.0 4.0 0.07 0.30 0.29 95 1006.4
20260902210056 57 202 3.0 9.0 0.07 0.28 0.27 95 1006.2
20260902204601 57 117 2.0 12.0 0.06 0.26 0.25 95 1006.4
20260902203100 57 138 3.0 8.0 0.07 0.25 0.24 95 1006.2
20260902201556 57 229 0.0 3.0 0.06 0.23 0.22 95 1006.1
20260902200051 57 0 0.0 4.0 0.05 0.21 0.20 95 1006.3
20260902194547 57 73 1.0 4.0 0.05 0.20 0.19 95 1006.2
20260902193053 56 349 1.0 5.0 0.05 0.18 0.17 94 1006.4
20260902191600 56 269 2.0 9.0 0.04 0.17 0.16 93 1006.5
20260902190105 57 200 3.0 9.0 0.04 0.16 0.15 93 1006.8
20260902184555 57 0 2.0 6.0 0.02 0.14 0.13 93 1007.0
20260902183052 57 136 1.0 6.0 0.02 0.13 0.12 93 1006.9
20260902181600 57 95 0.0 2.0 0.03 0.13 0.12 94 1007.0
20260902180103 57 110 1.0 3.0 0.04 0.12 0.11 93 1007.1
20260902174602 57 158 0.0 3.0 0.06 0.12 0.11 93 1007.4
20260902173049 57 130 0.0 7.0 0.06 0.11 0.10 93 1007.4
20260902171606 57 0 0.0 2.0 0.06 0.10 0.09 93 1007.5
20260902170054 57 195 0.0 4.0 0.04 0.08 0.07 92 1007.3
20260902164601 57 0 0.0 4.0 0.03 0.06 0.05 92 1007.4
20260902163057 57 0 0.0 2.0 0.02 0.05 0.04 92 1007.5
20260902161559 57 0 0.0 0.0 0.02 0.04 0.03 91 1007.6
20260902160059 57 0 0.0 1.0 0.02 0.04 0.03 93 1007.5
20260902154559 57 0 0.0 1.0 0.02 0.03 0.02 92 1007.5
20260902153117 56 0 0.0 1.0 0.02 0.03 0.02 93 1007.8
20260902151551 56 228 1.0 4.0 0.01 0.02 0.01 92 1007.9
20260902150052 56 0 0.0 0.0 0.01 0.02 0.01 92 1008.0
20260902144559 56 0 0.0 1.0 0.00 0.01 0.00 92 1008.1
20260902143059 56 169 1.0 4.0 0.00 0.01 0.00 93 1008.2
20260902141555 56 0 0.0 2.0 0.00 0.01 0.00 92 1008.3
20260902140111 55 0 0.0 0.0 0.00 0.01 0.00 92 1008.3
20260902134553 56 0 0.0 2.0 0.00 0.01 0.00 92 1008.6
20260902133101 56 0 0.0 1.0 0.00 0.01 0.00 92 1008.7
20260902131559 56 0 0.0 2.0 0.00 0.01 0.00 92 1008.9
20260902130056 56 0 0.0 1.0 0.00 0.01 0.00 92 1009.3
20260902124609 56 0 0.0 1.0 0.00 0.01 0.00 92 1009.5
20260902123100 55 0 1.0 2.0 0.00 0.01 0.00 93 1009.6
20260902121606 55 0 0.0 2.0 0.00 0.01 0.00 93 1009.7
20260902120058 55 0 0.0 0.0 0.00 0.01 0.00 94 1009.9
20260902114607 55 0 0.0 3.0 0.00 0.01 0.00 94 1010.2
20260902113100 55 0 0.0 0.0 0.00 0.01 0.00 94 1010.3
20260902111559 54 156 0.0 2.0 0.00 0.01 0.00 94 1010.4
20260902110052 54 0 0.0 0.0 0.00 0.01 0.00 93 1010.6
20260902104557 54 0 0.0 0.0 0.00 0.01 0.00 93 1010.6
20260902103115 54 0 0.0 2.0 0.00 0.01 0.00 93 1010.6
20260902101552 54 0 0.0 0.0 0.00 0.01 0.00 93 1010.7
20260902100049 54 0 0.0 0.0 0.00 0.01 0.00 92 1010.8
20260902094556 54 156 0.0 0.0 0.00 0.01 0.00 93 1010.8
20260902093102 54 0 0.0 0.0 0.00 0.01 0.00 93 1010.9
20260902091559 54 156 0.0 2.0 0.00 0.01 0.00 91 1010.9
20260902090100 54 0 0.0 2.0 0.00 0.01 0.00 90 1011.2
20260902084551 55 0 0.0 1.0 0.00 0.01 0.00 89 1011.3
20260902083059 56 166 0.0 4.0 0.00 0.01 0.00 88 1011.4
20260902081558 56 0 0.0 3.0 0.00 0.01 0.00 88 1011.5
20260902080053 57 0 0.0 3.0 0.00 0.01 0.00 87 1011.5
20260902074613 57 0 0.0 2.0 0.00 0.01 0.00 87 1011.6
20260902073104 57 0 1.0 5.0 0.00 0.01 0.00 87 1011.7
20260902071559 56 184 1.0 4.0 0.00 0.01 0.00 91 1011.8
20260902070055 55 119 0.0 5.0 0.00 0.01 0.00 92 1011.8
20260902064552 55 0 1.0 3.0 0.00 0.01 0.01 92 1011.9
20260902063057 55 0 0.0 3.0 0.00 0.01 0.01 91 1011.8
20260902061554 55 0 0.0 2.0 0.00 0.01 0.01 91 1011.9
20260902060104 55 283 0.0 3.0 0.00 0.01 0.01 91 1012.0
20260902054559 55 0 0.0 3.0 0.00 0.01 0.01 90 1012.0
20260902053102 56 0 0.0 2.0 0.00 0.01 0.01 89 1012.2
20260902051556 57 263 1.0 2.0 0.00 0.01 0.01 89 1012.3
20260902050049 57 0 0.0 3.0 0.00 0.01 0.01 88 1012.2
20260902044555 58 0 0.0 2.0 0.00 0.01 0.01 88 1012.4
20260902043056 58 0 0.0 2.0 0.00 0.01 0.01 87 1012.6
20260902041600 58 209 0.0 3.0 0.00 0.01 0.01 87 1012.4
20260902040105 58 315 1.0 3.0 0.00 0.01 0.01 87 1012.4
20260902034605 58 271 1.0 3.0 0.00 0.01 0.01 87 1012.4
20260902033100 59 269 1.0 3.0 0.00 0.01 0.01 85 1012.3
20260902031552 59 228 1.0 3.0 0.00 0.01 0.01 85 1012.5
20260902030057 61 0 0.0 3.0 0.00 0.01 0.01 83 1012.4
20260902024553 63 95 0.0 2.0 0.00 0.01 0.01 78 1012.3